sat.trackr.live / text

‹ back to catalog

ICEYE-X49

NORAD 62384 · 2024-247H

PAYLOAD ACTIVE UNKNOWN

§ Identity

Operator
Country
FIN
Launch date
2024-12-21
Launch site
AFWTR
Launch vehicle
Mass (kg)
RCS (m²)

External: N2YO · Heavens-Above · Gunter

§ Orbital elements

Epoch: 2026-09-22T04:43:29.658720Z

Period
95.14 min
Inclination
44.9971°
Eccentricity
0.0001134
Mean motion
15.13515968 rev/d
Perigee alt
524.7 km
Apogee alt
526.3 km
Semi-major
6,903.6 km
B*
2.0026e-4
RAAN
199.1504°
Arg perigee
272.9298°
Mean anomaly
87.1450°
Rev number
9,687

§ Raw data

ICEYE-X491 62384U 24247H   26265.19687105  .00003392  00000+0  20026-3 0  99992 62384  44.9971 199.1504 0001134 272.9298  87.1450 15.13515968 96875

JSON: /api/v1/satellites/62384 · /tle

For live sub-satellite position, see the globe view (requires WebGL).

§ Visibility from observer

Set your observer location to see the next 7 days of passes ≥ 10°. The values pass through the URL so the page stays shareable.

No JS? Fill the form by hand. The geolocation button needs JavaScript.